CAPE
178 199 179 213 338 472 533 752 1015 1351 2110 1547 874 474 105 0 0 0 0 0 0 0 0 0 0 0 0 0 0 0 0 0 0 0 0 0 0 0 0 0 0 0 0
221 214 211 387 522 573 725 916 1249 1694 1757 864 297 73 0 0 0 0 0 0 0 0 0 0 0 0 0 0 0 0 0 1 2 0 0 0 0 0 0 0 0 0 0
346 281 322 426 584 777 996 1192 1614 1763 1068 366 81 1 0 0 0 0 0 0 0 0 0 0 0 0 0 0 0 0 0 0 0 0 0 0 0 0 0 0 0 0 0
338 323 419 509 674 980 1264 1544 1839 1252 659 122 0 0 0 0 0 0 0 0 0 0 0 0 0 0 0 0 0 0 0 0 0 0 0 0 0 0 0 0 0 0 0
403 419 430 733 1001 1198 1452 1776 1368 684 184 4 0 0 0 0 0 0 0 0 0 0 0 0 0 0 0 0 0 0 0 0 0 0 0 0 0 0 0 0 0 0 0
528 551 748 906 1094 1206 1635 1184 747 160 15 0 0 0 0 0 0 0 0 0 0 0 0 0 0 0 0 0 0 0 0 0 0 0 0 0 0 0 0 0 0 0 0
603 788 981 1056 1098 1347 1378 808 331 82 1 0 0 0 0 0 0 0 0 0 0 0 0 0 0 0 0 0 0 0 0 0 0 0 0 0 0 0 0 0 0 0 0
560 767 1019 1138 1255 1450 999 614 139 12 0 0 0 0 0 0 0 0 0 0 0 0 0 0 0 0 0 0 0 0 0 0 0 0 0 0 0 0 0 0 0 0 0
525 794 1007 1203 1357 1099 777 330 55 0 0 0 0 0 0 0 0 0 0 0 0 0 0 0 0 0 0 0 0 0 0 0 0 0 0 0 0 0 0 0 0 0 0
622 944 1285 1390 1210 810 531 145 17 0 0 0 0 0 0 0 0 0 0 0 0 0 0 0 0 0 0 0 0 0 0 0 0 0 0 0 0 0 0 0 0 0 0
842 1147 1353 1246 800 679 224 39 8 0 0 0 0 0 0 0 0 0 0 0 0 0 0 0 0 0 0 0 0 0 0 0 0 0 0 0 0 0 0 0 0 0 0
1075 1188 1173 849 654 210 114 7 3 0 0 0 0 0 0 0 0 0 0 0 0 0 0 0 0 0 0 0 0 0 0 0 0 0 0 0 0 0 0 0 0 0 0
981 958 864 633 315 86 85 5 4 0 0 0 0 0 0 0 0 0 0 0 0 0 0 0 0 0 0 0 0 0 0 0 0 0 0 0 0 0 0 0 0 0 0
797 686 539 356 166 33 2 1 0 0 0 0 0 0 0 0 0 0 0 0 0 0 0 0 0 0 0 0 0 0 0 0 0 0 0 0 0 0 0 0 0 0 0
573 472 446 225 147 23 5 5 0 0 0 0 0 0 0 0 0 0 0 0 0 0 0 0 0 0 0 0 0 0 0 0 0 0 0 0 0 0 0 0 0 0 0
545 461 358 115 31 3 3 1 0 0 0 0 0 0 0 0 0 0 0 0 0 0 0 0 0 0 0 0 0 0 0 0 0 0 0 0 0 0 0 0 0 0 0
546 390 125 53 0 3 0 0 0 0 0 0 0 0 0 0 0 0 0 0 0 0 0 0 0 0 0 0 0 0 0 0 0 0 0 0 0 0 0 0 0 0 0
366 134 114 29 0 0 0 0 0 0 0 0 0 0 0 0 0 0 0 0 0 0 0 0 0 0 0 0 0 0 0 0 0 0 0 0 0 0 0 0 0 0 0
126 94 50 0 0 0 0 0 0 0 0 0 0 0 0 0 0 0 0 0 0 0 0 0 0 0 0 0 0 0 0 0 0 0 0 0 0 0 0 0 0 0 0
103 39 0 0 0 0 0 0 0 0 0 0 0 0 0 0 0 0 0 0 0 0 0 0 0 0 0 0 0 0 0 0 0 0 0 0 0 0 0 0 0 0 0
7 0 0 0 0 0 0 0 0 0 0 0 0 0 0 0 0 0 0 0 0 0 0 0 0 0 0 0 0 0 0 0 0 0 0 0 0 0 0 0 0 0 0
1 0 0 0 0 0 0 0 0 0 0 0 0 0 0 0 0 0 0 0 0 0 0 0 0 0 0 0 0 0 0 0 0 0 0 0 0 0 0 0 0 0 0
0 0 0 0 0 0 0 0 0 0 0 0 0 0 0 0 0 0 0 0 0 0 0 0 0 0 0 0 0 0 0 0 0 0 0 0 0 0 0 0 0 0 0
0 0 0 0 0 0 0 0 0 0 0 0 0 0 0 0 0 0 0 0 0 0 0 0 0 0 0 0 0 0 0 0 0 0 0 0 0 0 0 0 0 0 0
0 0 0 0 0 0 0 0 0 0 0 0 0 0 0 0 0 0 0 0 0 0 0 0 0 0 0 0 0 0 0 0 0 0 0 0 0 0 0 0 0 0 0
0 0 0 0 0 0 0 0 0 0 0 0 0 0 0 0 0 0 0 0 0 0 0 0 0 0 0 0 0 0 0 0 0 0 0 0 0 0 0 0 0 0 0
CIN
-521 -493 -473 -436 -425 -384 -349 -302 -255 -199 -67 -137 -274 -390 -559 0 0 0 0 0 0 0 0 0 0 0 0 0 0 0 0 0 0 0 0 -1 -1 0 0 0 0 0 0
-476 -484 -457 -443 -418 -373 -349 -308 -247 -148 -117 -294 -484 -633 -10 0 0 0 0 0 0 0 0 0 0 0 0 0 0 0 0 0 0 0 0 0 0 0 0 0 0 0 0
-479 -475 -473 -464 -409 -366 -326 -281 -195 -145 -267 -471 -655 -319 0 0 0 0 0 0 0 0 0 0 0 0 0 0 0 0 0 0 0 0 0 0 0 0 0 0 0 0 0
-500 -494 -473 -444 -410 -349 -306 -246 -177 -258 -387 -633 0 0 0 0 0 0 0 0 0 0 0 0 0 0 0 0 0 0 0 0 0 0 0 0 0 0 0 0 0 0 0
-486 -475 -462 -447 -408 -358 -307 -229 -280 -421 -610 -213 0 0 0 0 0 0 0 0 0 0 0 0 0 0 0 0 0 0 0 0 0 0 0 0 0 0 0 0 0 0 0
-495 -432 -441 -455 -419 -386 -308 -371 -441 -659 -907 0 0 0 0 0 0 0 0 0 0 0 0 0 0 0 0 0 0 0 0 0 0 0 0 0 0 0 0 0 0 0 0
-509 -477 -477 -463 -449 -402 -394 -477 -586 -761 -194 0 0 0 0 0 0 0 0 0 0 0 0 0 0 0 0 0 0 0 0 0 0 0 0 0 0 0 0 0 0 0 0
-502 -511 -511 -499 -449 -421 -489 -533 -712 -937 0 0 0 0 0 0 0 0 0 0 0 0 0 0 0 0 0 0 0 0 0 0 0 0 0 0 0 0 0 0 0 0 0
-498 -544 -559 -522 -482 -535 -565 -638 -828 0 0 0 0 0 0 0 0 0 0 0 0 0 0 0 0 0 0 0 0 0 0 0 0 0 0 0 0 0 0 0 0 0 0
-558 -595 -617 -562 -559 -592 -612 -738 -737 0 0 0 0 0 0 0 0 0 0 0 0 0 0 0 0 0 0 0 0 0 0 0 0 0 0 0 0 0 0 0 0 0 0
-700 -669 -633 -604 -660 -623 -712 -842 -770 0 0 0 0 0 0 0 0 0 0 0 0 0 0 0 0 0 0 0 0 0 0 0 0 0 0 0 0 0 0 0 0 0 0
-726 -714 -696 -746 -738 -809 -808 -60 0 0 0 0 0 0 0 0 0 0 0 0 0 0 0 0 0 0 0 0 0 0 0 0 0 0 0 0 0 0 0 0 0 0 0
-808 -786 -794 -793 -827 -903 -839 -60 0 0 0 0 0 0 0 0 0 0 0 0 0 0 0 0 0 0 0 0 0 0 0 0 0 0 0 0 0 0 0 0 0 0 0
-842 -865 -855 -856 -876 -919 0 0 0 0 0 0 0 0 0 0 0 0 0 0 0 0 0 0 0 0 0 0 0 0 0 0 0 0 0 0 0 0 0 0 0 0 0
-914 -908 -858 -873 -851 -961 0 0 0 0 0 0 0 0 0 0 0 0 0 0 0 0 0 0 0 0 0 0 0 0 0 0 0 0 0 0 0 0 0 0 0 0 0
-863 -874 -853 -920 -981 0 0 0 0 0 0 0 0 0 0 0 0 0 0 0 0 0 0 0 0 0 0 0 0 0 0 0 0 0 0 0 0 0 0 0 0 0 0
-802 -867 -952 -990 0 0 0 0 0 0 0 0 0 0 0 0 0 0 0 0 0 0 0 0 0 0 0 0 0 0 0 0 0 0 0 0 0 0 0 0 0 0 0
-874 -1013 -951 -988 0 0 0 0 0 0 0 0 0 0 0 0 0 0 0 0 0 0 0 0 0 0 0 0 0 0 0 0 0 0 0 0 0 0 0 0 0 0 0
-1024 -996 -990 0 0 0 0 0 0 0 0 0 0 0 0 0 0 0 0 0 0 0 0 0 0 0 0 0 0 0 0 0 0 0 0 0 0 0 0 0 0 0 0
-988 -737 0 0 0 0 0 0 0 0 0 0 0 0 0 0 0 0 0 0 0 0 0 0 0 0 0 0 0 0 0 0 0 0 0 0 0 0 0 0 0 0 0
-997 0 0 0 0 0 0 0 0 0 0 0 0 0 0 0 0 0 0 0 0 0 0 0 0 0 0 0 0 0 0 0 0 0 0 0 0 0 0 0 0 0 0
-707 0 0 0 0 0 0 0 0 0 0 0 0 0 0 0 0 0 0 0 0 0 0 0 0 0 0 0 0 0 0 0 0 0 0 0 0 0 0 0 0 0 0
0 0 0 0 0 0 0 0 0 0 0 0 0 0 0 0 0 0 0 0 0 0 0 0 0 0 0 0 0 0 0 0 0 0 0 0 0 0 0 0 0 0 0
0 0 0 0 0 0 0 0 0 0 0 0 0 0 0 0 0 0 0 0 0 0 0 0 0 0 0 0 0 0 0 0 0 0 0 0 0 0 0 0 0 0 0
0 0 0 0 0 0 0 0 0 0 0 0 0 0 0 0 0 0 0 0 0 0 0 0 0 0 0 0 0 0 0 0 0 0 0 0 0 0 0 0 0 0 0
0 0 0 0 0 0 0 0 0 0 0 0 0 0 0 0 0 0 0 0 0 0 0 0 0 0 0 0 0 0 0 0 0 0 0 0 0 0 0 0 0 0 0
Wind_Speed
29 27 25 23 21 20 17 13 10 6 6 8 10 11 13 14 16 20 21 21 23 24 23 23 23 22 24 23 22 23 23 22 23 27 28 26 26 25 24 23 23 21 20
27 25 23 21 19 17 15 11 7 5 7 8 9 11 11 13 17 19 21 21 22 23 22 22 23 23 24 24 23 24 24 23 24 27 30 30 27 24 23 20 19 20 19
24 22 21 20 18 15 12 8 5 6 7 8 9 10 11 13 17 19 20 21 22 22 22 23 24 24 24 24 24 24 23 24 25 26 29 28 28 26 26 27 26 22 20
23 21 20 18 16 12 7 5 4 5 6 7 9 10 11 14 17 18 19 20 21 22 21 22 24 24 23 24 24 24 24 25 26 28 29 29 28 27 25 28 30 28 27
21 21 19 16 12 8 5 3 4 4 6 7 10 11 12 15 16 17 18 19 20 21 21 22 23 24 24 24 24 24 25 25 26 28 28 27 27 28 28 27 28 28 28
21 20 16 13 10 8 4 2 3 4 6 8 9 11 12 15 15 16 17 18 20 20 22 23 22 22 23 23 23 23 24 25 26 27 27 28 27 26 26 26 26 31 30
20 18 15 12 10 7 5 3 2 3 5 7 9 10 13 14 15 16 16 17 19 21 21 22 22 23 23 23 23 22 23 23 25 26 27 25 24 24 23 23 25 27 28
21 18 15 13 11 7 5 3 2 2 3 6 8 10 13 14 14 15 15 17 19 20 21 21 22 22 23 24 23 23 25 24 26 26 23 21 20 20 20 21 22 23 25
20 18 15 13 11 8 6 4 1 1 4 5 8 10 12 13 13 14 14 16 18 20 21 21 22 23 24 25 24 25 24 24 27 25 21 19 19 20 20 24 27 29 32
20 15 13 11 9 8 6 5 2 1 3 6 9 10 11 12 12 13 15 17 19 19 20 21 23 24 25 25 25 25 25 27 29 28 25 24 23 23 21 24 25 28 32
14 12 9 8 7 7 8 4 2 0 2 6 8 10 10 12 13 13 14 16 17 18 20 22 23 25 25 25 25 26 25 24 26 25 26 26 26 26 27 27 25 25 28
9 9 8 7 7 8 8 6 3 2 2 4 7 9 10 12 12 12 14 16 16 18 21 22 23 24 24 26 25 25 26 24 25 26 26 27 28 28 28 27 26 25 25
8 7 6 7 7 8 8 7 5 3 1 3 6 8 9 10 11 11 13 15 16 18 20 21 22 22 23 23 25 26 25 27 27 27 28 28 28 27 26 27 28 28 27
7 6 6 7 7 7 7 7 6 3 1 2 4 7 9 9 9 10 12 14 16 17 19 20 20 21 22 23 25 25 26 27 27 28 28 29 29 29 29 29 30 31 30
6 5 5 5 5 5 3 5 4 2 1 2 4 6 7 9 8 9 12 14 15 17 18 19 20 22 24 25 25 26 26 27 28 28 28 29 30 30 30 30 30 31 32
6 5 4 4 4 4 5 2 6 2 2 4 5 6 7 9 9 9 11 13 14 15 19 20 21 22 24 25 25 26 26 27 28 27 27 29 30 31 32 31 31 32 33
6 5 4 3 3 5 7 7 4 5 5 5 5 6 7 8 9 10 11 13 14 15 19 20 20 21 23 23 24 25 26 26 25 28 29 29 30 31 32 33 33 34 35
5 4 3 3 3 5 7 6 4 3 1 3 6 6 8 9 9 10 11 13 16 16 18 18 19 20 21 22 22 24 25 26 26 27 27 28 30 31 32 34 34 35 36
4 3 2 2 3 5 6 5 4 2 1 2 5 7 7 9 10 10 10 13 16 17 17 18 19 20 20 21 22 23 24 25 25 27 28 28 30 30 32 33 33 34 34
3 3 3 2 3 5 7 6 5 3 2 1 2 3 5 7 9 9 10 13 15 16 16 17 18 19 19 20 21 23 23 23 25 27 28 28 29 30 31 32 34 35 35
3 3 2 3 5 5 7 7 6 5 3 1 1 3 5 5 8 9 12 12 14 15 15 16 17 18 19 20 21 23 23 23 24 26 28 28 29 30 31 32 33 33 35
4 3 4 4 5 6 7 8 7 6 4 2 0 2 4 6 7 9 10 11 12 13 13 14 16 17 18 20 22 23 23 23 24 25 27 27 28 30 31 32 33 34 35
6 6 4 5 7 7 8 8 7 6 5 4 2 1 1 4 7 8 9 10 11 12 12 13 15 17 17 19 21 21 22 23 24 24 26 28 29 31 32 33 35 36 36
7 7 6 7 8 8 9 9 8 8 7 5 3 2 1 3 6 7 8 9 10 10 11 13 14 16 17 19 20 20 20 22 22 23 24 27 30 31 32 34 34 36 35
10 9 9 8 8 9 10 10 9 9 8 7 5 3 3 4 5 6 6 7 8 8 10 11 13 14 16 19 21 21 21 21 21 22 24 28 31 31 33 35 35 36 36
13 13 12 11 10 9 10 10 10 10 10 9 7 6 5 4 4 4 4 5 6 7 8 10 12 13 15 17 19 21 21 21 21 22 23 26 29 31 31 34 35 36 36
Wind_Direction
174 174 177 179 183 186 190 187 181 151 97 69 60 51 51 47 40 31 31 31 29 31 34 34 32 29 23 23 24 24 21 21 17 12 10 18 20 20 18 18 17 18 16
173 175 179 180 180 183 184 179 154 102 65 60 53 46 47 42 32 27 26 29 29 29 34 33 29 25 24 25 25 23 22 20 17 11 8 10 17 19 19 19 21 20 19
172 173 175 177 178 179 176 161 108 78 55 47 43 43 41 36 26 25 26 28 28 30 31 27 24 24 25 25 24 22 22 18 14 9 6 10 14 20 17 16 18 23 24
172 174 176 179 180 174 156 135 101 73 58 49 41 36 35 28 23 24 25 27 28 28 29 27 25 25 25 24 21 19 18 15 11 8 6 9 13 17 19 15 14 17 16
174 177 181 179 175 166 152 120 76 60 55 56 41 32 30 23 23 23 25 26 26 26 27 25 25 25 24 22 19 17 15 13 11 8 8 11 13 14 16 16 12 13 13
178 183 181 179 176 174 163 124 76 54 55 46 36 29 24 21 26 24 25 25 25 24 23 22 24 24 22 20 19 17 15 13 10 8 8 8 11 14 15 14 12 8 9
183 186 185 182 181 179 167 147 108 84 56 47 29 28 21 23 26 24 26 25 24 23 22 20 20 20 18 16 16 16 15 12 9 6 5 8 10 13 12 11 10 7 4
190 190 189 188 186 180 174 171 116 76 59 40 27 26 21 23 27 25 27 27 25 23 21 19 19 18 17 15 14 14 12 10 6 5 8 9 11 12 11 8 6 7 6
197 197 196 194 195 196 197 201 181 62 37 31 24 21 21 26 26 27 28 26 24 21 21 21 19 18 16 15 14 12 12 11 6 7 12 13 12 13 13 10 8 5 3
197 198 195 197 206 209 205 203 219 346 26 26 20 24 25 26 28 29 25 25 19 21 22 21 20 18 17 16 15 14 11 9 5 6 11 12 13 12 15 12 8 4 1
202 198 201 199 205 199 181 193 206 329 41 18 21 23 28 27 27 27 28 24 22 23 20 18 19 17 18 18 17 15 12 9 8 10 9 10 11 10 10 9 9 6 2
183 181 179 175 166 164 166 167 177 158 36 25 23 23 25 24 30 34 31 27 28 23 19 20 18 17 19 17 17 15 13 15 13 12 10 10 9 8 8 8 7 6 4
162 164 162 153 152 155 158 162 159 150 59 17 24 20 21 26 33 39 34 30 28 22 21 19 18 19 19 18 17 15 17 15 15 14 11 10 8 8 8 8 7 6 5
163 162 152 146 143 147 150 156 158 161 119 20 28 15 22 27 37 40 33 30 26 23 21 19 19 19 20 20 18 18 17 16 16 13 11 10 9 10 9 8 6 6 4
172 162 155 143 147 144 143 161 173 181 107 49 32 31 26 19 40 44 34 28 25 23 20 19 18 18 18 18 20 18 17 16 16 15 14 12 11 10 9 8 8 7 5
184 177 176 160 165 171 160 152 327 343 59 31 47 45 47 39 55 50 40 33 28 27 18 16 18 18 18 18 19 18 18 16 17 17 15 14 12 11 9 9 9 8 5
196 184 171 179 188 182 169 168 173 330 4 23 57 51 52 54 58 52 42 33 30 25 17 19 20 20 20 20 20 18 17 18 20 17 15 15 13 12 11 10 9 8 5
211 197 186 180 190 178 169 171 185 180 173 11 30 47 52 59 58 52 45 38 24 21 20 22 22 23 23 22 21 19 18 19 20 18 18 17 15 14 13 10 10 9 7
218 216 197 180 185 179 172 179 194 185 139 65 44 34 55 57 50 52 49 24 19 20 23 25 25 25 23 22 20 19 20 21 20 19 18 18 17 16 14 13 12 11 11
232 208 180 206 183 190 189 194 204 203 164 116 63 56 74 61 39 37 29 26 22 24 26 26 27 26 25 24 21 20 21 22 21 19 18 19 18 18 16 14 13 13 13
218 207 229 245 205 197 199 207 210 199 186 182 63 92 108 55 32 27 24 27 25 26 28 30 28 28 27 25 21 20 21 22 22 22 21 20 20 19 18 17 17 17 14
235 241 263 238 218 215 212 214 209 204 204 207 152 103 121 28 26 28 27 29 31 33 38 36 30 30 28 24 21 20 24 25 24 24 23 23 23 21 21 20 18 16 14
261 269 278 261 252 229 212 214 217 218 217 213 200 147 140 6 14 20 25 31 36 37 40 38 35 31 29 25 24 26 27 27 27 27 26 26 24 24 24 22 20 17 14
267 272 278 269 259 241 229 225 225 221 216 219 228 242 278 347 3 10 22 32 37 40 38 35 34 30 29 26 27 33 33 31 31 33 33 30 27 26 27 25 24 21 20
272 277 280 266 245 234 233 231 227 224 222 231 230 248 285 328 351 6 19 32 41 41 39 34 33 34 32 26 26 32 34 37 40 40 37 34 30 32 31 31 29 29 28
272 275 278 274 258 240 234 227 222 219 223 238 246 256 270 298 331 357 16 30 41 44 42 39 34 37 34 31 32 34 37 40 44 43 42 39 38 36 36 35 35 35 34